Lake Wylie Weather Center

Moon Phase Calendar



Lake Wylie Water Level
Online Cameras

 


      

Current Conditions in Lake Wylie
9/29/2022 6:51:34 AM

54°F
Feels Like 52
Clear
Humidity
69%
Pressure
30.21"
Wind
11.5 mph (NNE)
Dew Point
44°F
UV Index
0/10 (Low)
Visibility
6 mi

Hourly Forecast

Date & Time Thu, Sep 29
6:00 AM
Thu, Sep 29
7:00 AM
Thu, Sep 29
8:00 AM
Thu, Sep 29
9:00 AM
Thu, Sep 29
10:00 AM
Thu, Sep 29
11:00 AM
Thu, Sep 29
12:00 PM
Thu, Sep 29
1:00 PM
Thu, Sep 29
2:00 PM
Thu, Sep 29
3:00 PM
Thu, Sep 29
4:00 PM
Thu, Sep 29
5:00 PM
Thu, Sep 29
6:00 PM
Thu, Sep 29
7:00 PM
Thu, Sep 29
8:00 PM
Thu, Sep 29
9:00 PM
Thu, Sep 29
10:00 PM
Thu, Sep 29
11:00 PM
Fri, Sep 30
12:00 AM
Fri, Sep 30
1:00 AM
Fri, Sep 30
2:00 AM
Fri, Sep 30
3:00 AM
Fri, Sep 30
4:00 AM
Fri, Sep 30
5:00 AM
Fri, Sep 30
6:00 AM
Fri, Sep 30
7:00 AM
Fri, Sep 30
8:00 AM
Fri, Sep 30
9:00 AM
Fri, Sep 30
10:00 AM
Fri, Sep 30
11:00 AM
Fri, Sep 30
12:00 PM
Fri, Sep 30
1:00 PM
Fri, Sep 30
2:00 PM
Fri, Sep 30
3:00 PM
Fri, Sep 30
4:00 PM
Fri, Sep 30
5:00 PM
Fri, Sep 30
6:00 PM
Fri, Sep 30
7:00 PM
Fri, Sep 30
8:00 PM
Fri, Sep 30
9:00 PM
Fri, Sep 30
10:00 PM
Fri, Sep 30
11:00 PM
Sat, Oct 1
12:00 AM
Sat, Oct 1
1:00 AM
Sat, Oct 1
2:00 AM
Sat, Oct 1
3:00 AM
Sat, Oct 1
4:00 AM
Sat, Oct 1
5:00 AM
Condition
Clouds

Clear

Clouds

Clouds

Clouds

Clouds

Clouds

Clouds

Clouds

Clouds

Clouds

Clouds

Clouds

Clouds

Clouds

Clouds

Clouds

Clouds

Clouds

Clouds

Clouds

Clouds

Clouds

Clouds

Clouds

Clouds

Rain

Rain

Rain

Rain

Rain

Rain

Rain

Rain

Rain

Rain

Rain

Rain

Rain

Rain

Rain

Rain

Rain

Rain

Rain

Rain

Rain

Rain
Temperature 54°F54°F54°F55°F57°F62°F67°F68°F69°F69°F69°F69°F68°F66°F65°F64°F64°F63°F62°F61°F61°F61°F60°F59°F59°F58°F56°F55°F54°F54°F55°F55°F56°F56°F56°F57°F57°F57°F57°F58°F58°F58°F57°F58°F59°F60°F59°F59°F
Feels Like 52°F52°F52°F53°F55°F60°F65°F67°F67°F68°F68°F68°F66°F64°F64°F63°F62°F61°F60°F60°F59°F59°F58°F57°F57°F57°F55°F54°F54°F54°F54°F55°F55°F56°F56°F56°F57°F57°F57°F58°F57°F58°F57°F58°F59°F60°F59°F59°F
Cloudiness 20%0%20%40%60%80%100%100%100%100%100%100%100%100%100%100%100%100%100%100%100%100%100%100%100%100%100%100%100%100%100%100%100%100%100%100%100%100%100%100%100%100%100%100%100%100%100%100%
Visibility 6 mi6 mi6 mi6 mi6 mi6 mi6 mi6 mi6 mi6 mi6 mi6 mi6 mi6 mi6 mi6 mi6 mi6 mi6 mi6 mi6 mi6 mi6 mi6 mi6 mi6 mi6 mi6 mi6 mi6 mi3 mi3 mi2 mi2 mi1 mi4 mi2 mi6 mi3 mi1 mi2 mi2 mi2 mi2 mi2 mi1 mi0 mi0 mi
Precipitation 0%0%0%0%0%0%0%0%0%0%0%0%0%0%0%0%0%0%0%0%0%0%0%0%2%9%23%87%96%98%100%100%100%100%100%100%100%100%100%100%100%100%100%100%100%83%82%82%
Humidity 67%69%67%65%61%53%44%41%40%39%39%39%42%43%44%45%46%48%50%51%53%54%55%57%59%61%78%87%93%94%95%95%96%96%97%96%95%95%95%95%95%95%96%97%97%98%98%98%
Dew Point 43°F44°F43°F43°F44°F45°F44°F44°F43°F43°F43°F43°F43°F43°F43°F42°F43°F43°F43°F43°F43°F44°F44°F44°F44°F45°F49°F50°F52°F52°F53°F54°F54°F55°F55°F55°F56°F55°F56°F56°F56°F56°F56°F57°F58°F59°F58°F58°F
Pressure 30.21"30.21"30.21"30.21"30.24"30.24"30.21"30.21"30.18"30.15"30.12"30.12"30.12"30.12"30.15"30.15"30.15"30.12"30.12"30.09"30.09"30.09"30.06"30.06"30.03"30.03"30.03"30.03"30"30"29.97"29.94"29.88"29.85"29.8"29.77"29.74"29.74"29.68"29.62"29.56"29.56"29.56"29.56"29.56"29.56"29.56"29.59"
Wind Speed 11.3 mph12.3 mph11.6 mph12.7 mph14.1 mph16.7 mph17.3 mph16.8 mph16 mph15.5 mph13.6 mph13.7 mph13.7 mph13.6 mph13.6 mph14 mph13.3 mph13.5 mph13.7 mph13.6 mph14.6 mph14 mph14.8 mph15 mph15.1 mph16.1 mph15.8 mph16.2 mph17.8 mph17.7 mph17.7 mph18.7 mph21.4 mph19.6 mph21.5 mph23.6 mph24.6 mph24.8 mph26.1 mph27.5 mph29 mph24 mph20.6 mph20.2 mph17.8 mph16.5 mph16.3 mph15 mph
Wind
Direction
29°
NNE
25°
NNE
34°
NE
31°
NNE
40°
NE
42°
NE
48°
NE
47°
NE
49°
NE
47°
NE
46°
NE
45°
NE
42°
NE
42°
NE
48°
NE
43°
NE
44°
NE
40°
NE
39°
NE
37°
NE
36°
NE
37°
NE
30°
NNE
30°
NNE
30°
NNE
29°
NNE
32°
NNE
30°
NNE
28°
NNE
29°
NNE
29°
NNE
31°
NNE
28°
NNE
22°
NNE
17°
NNE
21°
NNE
28°
NNE
23°
NNE
21°
NNE
19°
NNE
21°
NNE
27°
NNE
35°
NE
43°
NE
61°
ENE
80°
E
94°
E
105°
ESE

Daily Forecast

Date High Low Precip. Humidity
Today
Sep 29

Clouds
69 °F
54 °F
0%
41%
Friday
Sep 30

Rain
62 °F
54 °F
100%
95%
Saturday
Oct 1

Rain
66 °F
58 °F
100%
83%
Sunday
Oct 2

Rain
60 °F
55 °F
100%
98%
Monday
Oct 3

Rain
55 °F
52 °F
99%
95%
Tuesday
Oct 4

Rain
62 °F
50 °F
79%
64%
Wednesday
Oct 5

Clouds
70 °F
46 °F
0%
48%
Thursday
Oct 6

Clear
75 °F
53 °F
0%
49%
Friday
Oct 7

Clouds
80 °F
56 °F
0%
42%
Saturday
Oct 8

Clear
67 °F
50 °F
0%
42%
Sunday
Oct 9

Clouds
68 °F
51 °F
0%
41%
Monday
Oct 10

Clear
75 °F
52 °F
0%
53%
Tuesday
Oct 11

Clear
81 °F
58 °F
0%
48%
Wednesday
Oct 12

Rain
78 °F
63 °F
43%
54%
Thursday
Oct 13

Rain
64 °F
58 °F
100%
89%
Friday
Oct 14

Clouds
73 °F
53 °F
0%
51%

Temperature 8-14 Day Outlook



Precipitation 8-14 Day Outlook




Quick Links
Lake Wylie News
Lake Wylie Photos
Lake Wylie Videos




About Us
Contact Us
Site Map
Search Site
Advertise With Us
   
Wylie.USLakes.info
THE LAKE WYLIE WEBSITE

Copyright 2022, Lakes Online
Privacy    |    Legal